Flag for Greece Weather past 2 weeks in Nea Smyrni, Greece

73 °F

Scattered clouds.

Feels Like: 76 °F
Forecast: 59 / 72 °F
Wind: 10 mph from Northeast

Location: Eleftherios Venizelos International Airport

Current Time: Oct 13, 2015 at 5:15:56 PM

Latest Report: Oct 13, 2015 at 4:50 PM

Visibility: N/A

Pressure: 30.04 "Hg

Humidity: 61%

Dew point: 59 °F

Location of Nea SmyrniLocation

Historic Weather in Nea Smyrni — Graph


Nea Smyrni temperature yesterday

Maximum temperature yesterday: 81 °F (at 3:20 PM)
Minimum temperature yesterday: 68 °F (at 4:50 AM)
Average temperature yesterday: 73 °F

Past Weeks' High & Low Weather Summary

High82 °F (Oct 11, 12:50 PM)94% (Sep 28, 11:50 PM)30.30 "Hg (Sep 28, 11:50 PM)
Low54 °F (Oct 4, 3:50 AM)39% (Oct 12, 3:20 PM)29.71 "Hg (Oct 11, 1:20 PM)
Average68 °F70%30.02 "Hg
* Reported Sep 28 3:20 PM — Oct 13 3:50 PM, Nea Smyrni, Weather by CustomWeather, © 2015

Note: Actual official high and low records may vary slightly from our data, if they occured in-between our weather recording intervals... More about our weather records


Nea Smyrni weather history for previous 24 hours

Time TempWeatherWind HumidityBarometerVisibility
3:50 PM
Tue, Oct 13
75 °FScattered clouds.7 mph57%30.04 "HgN/A
3:20 PM75 °FScattered clouds.8 mph57%30.04 "HgN/A
2:50 PM73 °FScattered clouds.8 mph61%30.04 "HgN/A
2:20 PM75 °FScattered clouds.10 mph47%30.04 "HgN/A
1:50 PM75 °FScattered clouds.12 mph50%30.04 "HgN/A
1:20 PM75 °FPassing clouds.13 mph50%30.04 "HgN/A
12:50 PM75 °FPassing clouds.14 mph50%30.04 "HgN/A
12:20 PM75 °FPassing clouds.1 mph50%30.04 "HgN/A
11:50 AM77 °FPassing clouds.2 mph42%30.04 "HgN/A
11:20 AM75 °FPassing clouds.2 mph47%30.04 "HgN/A
10:50 AM73 °FPassing clouds.5 mph50%30.04 "HgN/A
10:20 AM70 °FScattered clouds.3 mph57%30.04 "HgN/A
9:50 AM68 °FPassing clouds.2 mph64%30.01 "HgN/A
9:20 AM68 °FPassing clouds.2 mph64%30.01 "HgN/A
8:50 AM68 °FPassing clouds.3 mph60%30.01 "HgN/A
8:20 AM66 °FPassing clouds.1 mph60%29.98 "HgN/A
7:50 AM64 °FPassing clouds.2 mph64%29.98 "HgN/A
7:20 AM63 °FPassing clouds.1 mph68%29.98 "HgN/A
6:50 AM64 °FPassing clouds.1 mph68%29.98 "HgN/A
6:20 AM64 °FPassing clouds.2 mph68%29.98 "HgN/A
5:50 AM64 °FPassing clouds.2 mph68%29.95 "HgN/A
5:20 AM61 °FPassing clouds.2 mph77%29.95 "HgN/A
4:50 AM61 °FPassing clouds.1 mph77%29.95 "HgN/A
4:20 AM61 °FPassing clouds.1 mph77%29.95 "HgN/A
3:50 AM64 °FPassing clouds.No wind68%29.95 "HgN/A
3:20 AM63 °FPassing clouds.2 mph77%29.98 "HgN/A
2:50 AM61 °FPassing clouds.3 mph77%29.98 "HgN/A
2:20 AM63 °FPassing clouds.3 mph77%29.98 "HgN/A
1:50 AM66 °FPassing clouds.3 mph68%29.95 "HgN/A
1:20 AM64 °FPassing clouds.1 mph68%29.95 "HgN/A
12:50 AM64 °FPassing clouds.1 mph68%29.95 "HgN/A
12:20 AM66 °FPassing clouds.2 mph64%29.95 "HgN/A
11:50 PM
Mon, Oct 12
68 °FPassing clouds.3 mph60%29.95 "HgN/A
11:20 PM68 °FPassing clouds.6 mph60%29.95 "HgN/A
10:50 PM70 °FPassing clouds.2 mph57%29.95 "HgN/A
10:20 PM70 °FPassing clouds.3 mph53%29.95 "HgN/A
9:50 PM70 °FPassing clouds.5 mph57%29.95 "HgN/A
9:20 PM72 °FPassing clouds.5 mph50%29.95 "HgN/A
8:50 PM70 °FPassing clouds.5 mph57%29.92 "HgN/A
8:20 PM70 °FPassing clouds.3 mph57%29.92 "HgN/A
7:50 PM72 °FPassing clouds.2 mph50%29.92 "HgN/A
7:20 PM73 °FPassing clouds.3 mph44%29.92 "HgN/A
6:50 PM75 °FPassing clouds.7 mph44%29.89 "HgN/A
6:20 PM75 °FPassing clouds.9 mph47%29.89 "HgN/A
5:50 PM77 °FPassing clouds.10 mph47%29.89 "HgN/A
5:20 PM77 °FPassing clouds.10 mph47%29.89 "HgN/A
Weather by CustomWeather, © 2015

See weather overviewHow to use our weather pages